When you browse on this site, cookies collect data to enhance your experience and personalize the content and advertising you see.
Visit our Privacy Policy to learn more. By continuing to use the site, you agree to this use of cookies and data.
  • In Lithuania
  • List of Countries
  • For 7 days
  • Water Temperature
  • Satellite Maps
  • Weather Map
  • Weather Widgets
  • user-avatar
    Login

    Hourly Weather Opytnyy

    Today, 19 November, Monday

    Time Temperature Precipitation Wind Pressure Humidity
    00:00 -3°C° 0 mm 2 mps 760 mmHg 87%
    01:00 -4°C° 0 mm 2 mps 760 mmHg 88%
    02:00 -4°C° 0 mm 2 mps 760 mmHg 88%
    03:00 -5°C° 0 mm 2 mps 760 mmHg 89%
    04:00 -5°C° 0 mm 2 mps 760 mmHg 90%
    05:00 -5°C° 0 mm 2 mps 760 mmHg 91%
    06:00 -5°C° 0 mm 2 mps 760 mmHg 91%
    07:00 -5°C° 0 mm 2 mps 760 mmHg 91%
    08:00 -5°C° 0 mm 3 mps 760 mmHg 91%
    09:00 -5°C° 0 mm 3 mps 760 mmHg 91%
    10:00 -4°C° 0 mm 3 mps 760 mmHg 91%
    11:00 -3°C° 0 mm 4 mps 760 mmHg 91%
    12:00 -2°C° 0 mm 4 mps 760 mmHg 92%
    13:00 -2°C° 0 mm 4 mps 760 mmHg 92%
    14:00 -2°C° 0 mm 4 mps 760 mmHg 91%
    15:00 -2°C° 0 mm 4 mps 759 mmHg 91%
    16:00 -2°C° 0 mm 4 mps 759 mmHg 91%
    17:00 -3°C° 0 mm 4 mps 759 mmHg 90%
    18:00 -3°C° 0 mm 4 mps 759 mmHg 90%
    19:00 -3°C° 0 mm 4 mps 759 mmHg 88%
    20:00 -3°C° 0 mm 4 mps 758 mmHg 86%
    21:00 -4°C° 0 mm 5 mps 758 mmHg 83%
    22:00 -2°C° 0.1 mm 4 mps 758 mmHg 84%
    23:00 -2°C° 0.1 mm 4 mps 758 mmHg 85%

    Tomorrow, 20 November, Tuesday

    Time Temperature Precipitation Wind Pressure Humidity
    00:00 -2°C° 0.1 mm 4 mps 757 mmHg 86%
    01:00 -2°C° 0.5 mm 4 mps 757 mmHg 88%
    02:00 -2°C° 0.5 mm 4 mps 757 mmHg 89%
    03:00 -2°C° 0.5 mm 4 mps 757 mmHg 91%
    04:00 -2°C° 0.4 mm 5 mps 756 mmHg 92%
    05:00 -1°C° 0.4 mm 5 mps 756 mmHg 93%
    06:00 -1°C° 0.4 mm 5 mps 755 mmHg 93%
    07:00 -1°C° 0.4 mm 5 mps 755 mmHg 94%
    08:00 -1°C° 0.4 mm 5 mps 755 mmHg 95%
    09:00 -1°C° 0.4 mm 5 mps 755 mmHg 96%
    10:00 -1°C° 0.7 mm 5 mps 755 mmHg 96%
    11:00 -2°C° 0.7 mm 6 mps 754 mmHg 97%
    12:00 -2°C° 0.7 mm 6 mps 754 mmHg 97%
    13:00 -2°C° 0.4 mm 6 mps 754 mmHg 97%
    14:00 -1°C° 0.4 mm 6 mps 753 mmHg 98%
    15:00 0°C° 0.4 mm 5 mps 753 mmHg 98%
    16:00 0°C° 1.2 mm 5 mps 753 mmHg 97%
    17:00 0°C° 1.2 mm 5 mps 753 mmHg 97%
    18:00 -1°C° 1.2 mm 6 mps 753 mmHg 97%
    19:00 -1°C° 0.2 mm 5 mps 754 mmHg 96%
    20:00 -1°C° 0.2 mm 5 mps 754 mmHg 94%
    21:00 -1°C° 0.2 mm 5 mps 754 mmHg 93%
    22:00 -1°C° 0 mm 5 mps 755 mmHg 92%
    23:00 -1°C° 0 mm 4 mps 755 mmHg 91%

    Day after tomorrow, 21 November, Wednesday

    Time Temperature Precipitation Wind Pressure Humidity
    00:00 -2°C° 0 mm 4 mps 756 mmHg 90%
    01:00 -2°C° 0 mm 4 mps 756 mmHg 90%
    02:00 -3°C° 0 mm 4 mps 756 mmHg 89%
    03:00 -3°C° 0 mm 4 mps 756 mmHg 88%
    04:00 -3°C° 0 mm 4 mps 756 mmHg 87%
    05:00 -3°C° 0 mm 4 mps 756 mmHg 87%
    06:00 -4°C° 0 mm 4 mps 756 mmHg 86%
    07:00 -4°C° 0 mm 4 mps 757 mmHg 85%
    08:00 -3°C° 0 mm 4 mps 757 mmHg 84%
    09:00 -3°C° 0 mm 4 mps 757 mmHg 83%
    10:00 -3°C° 0 mm 4 mps 757 mmHg 83%
    11:00 -3°C° 0 mm 4 mps 757 mmHg 82%
    12:00 -2°C° 0 mm 4 mps 756 mmHg 82%
    13:00 -2°C° 0 mm 4 mps 756 mmHg 83%
    14:00 -2°C° 0 mm 4 mps 756 mmHg 84%
    15:00 -2°C° 0 mm 4 mps 756 mmHg 84%
    16:00 -2°C° 0 mm 4 mps 756 mmHg 85%
    17:00 -3°C° 0 mm 4 mps 756 mmHg 86%
    18:00 -4°C° 0 mm 4 mps 756 mmHg 87%
    19:00 -4°C° 0 mm 3 mps 756 mmHg 87%
    20:00 -5°C° 0 mm 3 mps 756 mmHg 87%
    21:00 -5°C° 0 mm 3 mps 756 mmHg 87%
    22:00 -5°C° 0 mm 3 mps 756 mmHg 87%
    23:00 -5°C° 0 mm 3 mps 756 mmHg 86%

    22 November, Thursday

    Time Temperature Precipitation Wind Pressure Humidity
    00:00 -6°C° 0 mm 3 mps 756 mmHg 86%
    01:00 -6°C° 0 mm 3 mps 756 mmHg 86%
    02:00 -6°C° 0 mm 3 mps 756 mmHg 86%
    03:00 -6°C° 0 mm 3 mps 756 mmHg 86%
    04:00 -6°C° 0 mm 3 mps 756 mmHg 86%
    05:00 -6°C° 0 mm 3 mps 756 mmHg 86%
    06:00 -6°C° 0 mm 3 mps 756 mmHg 86%
    07:00 -6°C° 0 mm 3 mps 757 mmHg 85%
    08:00 -6°C° 0 mm 3 mps 757 mmHg 85%
    09:00 -6°C° 0 mm 3 mps 757 mmHg 85%
    10:00 -5°C° 0 mm 3 mps 757 mmHg 83%
    11:00 -4°C° 0 mm 3 mps 757 mmHg 82%
    12:00 -2°C° 0 mm 3 mps 757 mmHg 80%
    13:00 -2°C° 0 mm 3 mps 757 mmHg 81%
    14:00 -2°C° 0 mm 3 mps 756 mmHg 82%
    15:00 -2°C° 0 mm 3 mps 756 mmHg 83%
    16:00 -4°C° 0 mm 3 mps 756 mmHg 85%
    17:00 -5°C° 0 mm 3 mps 756 mmHg 87%
    18:00 -5°C° 0 mm 2 mps 756 mmHg 90%
    19:00 -5°C° 0 mm 2 mps 757 mmHg 89%
    20:00 -5°C° 0 mm 2 mps 757 mmHg 88%
    21:00 -5°C° 0 mm 2 mps 757 mmHg 87%
    22:00 -5°C° 0 mm 2 mps 757 mmHg 86%
    23:00 -5°C° 0 mm 2 mps 757 mmHg 85%

    23 November, Friday

    Time Temperature Precipitation Wind Pressure Humidity
    00:00 -6°C° 0 mm 3 mps 757 mmHg 84%
    01:00 -6°C° 0 mm 3 mps 757 mmHg 83%
    02:00 -6°C° 0 mm 3 mps 757 mmHg 83%
    03:00 -6°C° 0 mm 3 mps 757 mmHg 82%
    04:00 -6°C° 0 mm 3 mps 757 mmHg 83%
    05:00 -6°C° 0 mm 3 mps 758 mmHg 83%
    06:00 -6°C° 0 mm 3 mps 758 mmHg 84%
    07:00 -6°C° 0 mm 3 mps 759 mmHg 84%
    08:00 -6°C° 0 mm 3 mps 759 mmHg 84%
    09:00 -6°C° 0 mm 3 mps 760 mmHg 84%
    10:00 -5°C° 0 mm 3 mps 761 mmHg 83%
    11:00 -4°C° 0 mm 3 mps 761 mmHg 81%
    12:00 -2°C° 0 mm 3 mps 762 mmHg 79%
    13:00 -1°C° 0 mm 3 mps 762 mmHg 80%
    14:00 -1°C° 0 mm 3 mps 762 mmHg 81%
    15:00 -1°C° 0 mm 3 mps 762 mmHg 82%
    16:00 -2°C° 0 mm 3 mps 763 mmHg 84%
    17:00 -3°C° 0 mm 2 mps 763 mmHg 87%
    18:00 -4°C° 0 mm 2 mps 764 mmHg 89%
    19:00 -5°C° 0 mm 2 mps 764 mmHg 88%
    20:00 -5°C° 0 mm 2 mps 765 mmHg 87%
    21:00 -5°C° 0 mm 2 mps 765 mmHg 85%
    22:00 -5°C° 0 mm 2 mps 765 mmHg 84%
    23:00 -5°C° 0 mm 2 mps 765 mmHg 83%

    24 November, Saturday

    Time Temperature Precipitation Wind Pressure Humidity
    00:00 -6°C° 0 mm 2 mps 765 mmHg 81%
    01:00 -6°C° 0 mm 2 mps 765 mmHg 81%
    02:00 -6°C° 0 mm 2 mps 765 mmHg 80%
    03:00 -6°C° 0 mm 2 mps 765 mmHg 79%
    04:00 -4°C° 0 mm 1 mps 765 mmHg 79%
    05:00 -4°C° 0 mm 1 mps 764 mmHg 79%
    06:00 -4°C° 0 mm 1 mps 764 mmHg 79%
    07:00 -4°C° 0 mm 1 mps 764 mmHg 78%
    08:00 -4°C° 0 mm 1 mps 765 mmHg 78%
    09:00 -3°C° 0 mm 1 mps 765 mmHg 77%
    10:00 -2°C° 0 mm 1 mps 764 mmHg 74%
    11:00 -1°C° 0 mm 1 mps 764 mmHg 72%
    12:00 0°C° 0 mm 1 mps 764 mmHg 69%
    13:00 0°C° 0 mm 1 mps 764 mmHg 70%
    14:00 0°C° 0 mm 1 mps 763 mmHg 72%
    15:00 0°C° 0 mm 1 mps 763 mmHg 73%
    16:00 -1°C° 0 mm 1 mps 763 mmHg 76%
    17:00 -2°C° 0 mm 1 mps 762 mmHg 78%
    18:00 -3°C° 0 mm 1 mps 762 mmHg 81%
    19:00 -3°C° 0 mm 1 mps 762 mmHg 81%
    20:00 -3°C° 0 mm 1 mps 762 mmHg 81%
    21:00 -3°C° 0 mm 1 mps 762 mmHg 81%
    22:00 -3°C° 0 mm 1 mps 761 mmHg 81%
    23:00 -3°C° 0 mm 1 mps 761 mmHg 81%
    Show more